星链-36673(STARLINK-36673)

导读

STARLINK-36673是美国SpaceX星链星座的一员,于2026年2月2日发射升空。星链项目旨在构建全球卫星互联网星座,为全球偏远地区、海洋空域等信号盲区提供高速低延迟的宽带网络服务,该卫星入轨后将逐步展开轨道测试,加入现有星链网络扩容组网,服务全球网络覆盖需求。

基本信息
目录编号:
67660
目录名称:
STARLINK-36673
国际标识:
2026-022N
轨道中心:
EARTH
卫星名称:
星链-36673
卫星全名:
星链-36673(STARLINK-36673)
卫星状态:
在轨 (已飞行215 天)
发射日期:
2026-02-02 UTC
国别 :
美国 (US)
星等 :
--
轨道信息
数据来源 国际轨道数据
星历时间: 2026-09-04T16:28:44+0800
21小时前
查看轨道信息
半长轴: 6843.677km
偏心率: 0.00006
轨道倾角: 97.285°
近地点辐角 97.105°
升交点赤经 279.161°
平近点角 263.026°
近地点: 465.129km
远地点: 465.951km
周期: 93.906分钟
每日圈数: 15.334464
详细信息
固有亮度:
5
最大亮度:
2.5
卫星平台:
Starlink V1.0
覆盖范围:
全球
运营商:
太空探索技术公司
运营商所在国:
美国
制造商(研发单位):
太空探索技术公司
制造商所在国:
美国
使用方式:
暂无
卫星简介
Starlink 计划是 SpaceX 推出的全球卫星互联网项目,通过发射低轨道卫星,为全球尤其是偏远地区提供高速、低延迟的互联网服务。自 2019 年起,Starlink 已部署数千颗卫星,旨在缩小全球数字鸿沟,推动互联网普及。该项目还为军事、航空等行业提供通信支持,带来广泛经济效益。
2D轨道图
3D轨道图
轨道高度分析图
轨道倾角分析图
轨道综合分析图
查看轨道综合分析图
交会数据列表
事件ID 空间交会对象 最接近时刻(TCA) 交会距离 交会风险概率(CRP) 交会风险指数(CRI) 操作
CDM_260907-040705-305806-766021
2026-09-07T
04:07:14+0000
0.656 km
远距离
1.012985E-4 高风险 0.75
CDM_260907-005105-674806-766022
OBJECT F (56748)
2026-09-07T
00:51:55+0000
0.719 km
远距离
8.007141E-5 中风险 0.73
CDM_260906-220905-083106-766022
2026-09-06T
22:09:15+0000
1.933 km
极远距离
3.041783E-6 低风险 0.45
CDM_260902-055705-846906-766023
2026-09-02T
05:57:03+0000
1.705 km
极远距离
2.847298E-6 低风险 0.44
CDM_260905-133705-390006-766022
2026-09-05T
13:37:51+0000
2.055 km
极远距离
1.808252E-6 低风险 0.4
CDM_260906-201006-548506-766021
2026-09-06T
20:10:07+0000
2.918 km
极远距离
1.354471E-6 低风险 0.38
CDM_260902-081805-846906-766023
2026-09-02T
08:18:01+0000
2.543 km
极远距离
1.139308E-6 低风险 0.36